This is the latest recevied weather packets stored in our database for station/object KA1AL. If no packets are shown the sender has not sent any weather packets the latest 10 day(s).
| Time | Temp. | Humidity | Pressure | Rain* | Wind** | Luminosity | Snow |
|---|---|---|---|---|---|---|---|
| 1778062677 | 11.11° C | 97% | 1008.8 hPa | 0 mm | - | 17 W/m² | - |
| 1778062373 | 10.56° C | 98% | 1009 hPa | 0 mm | - | 14 W/m² | - |
| 1778062071 | 10.56° C | 99% | 1009.2 hPa | 0 mm | - | 15 W/m² | - |
| 1778061769 | 10.56° C | 99% | 1009.1 hPa | 0 mm | - | 10 W/m² | - |
| 1778061468 | 10.56° C | 99% | 1009.3 hPa | 0 mm | - | 10 W/m² | - |
| 1778061164 | 10.56° C | 99% | 1009.1 hPa | 0 mm | - | 13 W/m² | - |
| 1778060559 | 11.11° C | 98% | 1008.6 hPa | 0 mm | - | 2 W/m² | - |
| 1778060257 | 11.11° C | 98% | 1008.6 hPa | 0 mm | - | 2 W/m² | - |
| 1778059954 | 11.11° C | 98% | 1009.1 hPa | 0 mm | - | 2 W/m² | - |
| 1778059652 | 11.11° C | 97% | 1008.7 hPa | 0 mm | - | 2 W/m² | - |
| 1778059350 | 11.11° C | 97% | 1008.6 hPa | 0 mm | - | 0 W/m² | - |
| 1778059047 | 11.11° C | 98% | 1008.8 hPa | 0 mm | - | 0 W/m² | - |
| 1778058744 | 11.11° C | 98% | 1008.4 hPa | 0 mm | - | 0 W/m² | - |
| 1778058442 | 11.11° C | 98% | 1008.4 hPa | 0 mm | - | 0 W/m² | - |
| 1778058138 | 11.11° C | 98% | 1008.4 hPa | 0 mm | - | 0 W/m² | - |
| 1778057835 | 11.67° C | 98% | 1008.3 hPa | 0 mm | - | 0 W/m² | - |
| 1778057531 | 11.11° C | 98% | 1008.4 hPa | 0 mm | - | 0 W/m² | - |
| 1778057228 | 11.11° C | 99% | 1008.8 hPa | 0 mm | - | 0 W/m² | - |
| 1778056924 | 11.11° C | 99% | 1008.8 hPa | 0 mm | - | 0 W/m² | - |
| 1778056621 | 11.67° C | 99% | 1008.8 hPa | 0 mm | - | 0 W/m² | - |
| 1778056320 | 11.67° C | 99% | 1008.8 hPa | 0 mm | - | 0 W/m² | - |
| 1778056017 | 11.67° C | 99% | 1008.9 hPa | 0 mm | - | 0 W/m² | - |
| 1778055716 | 11.67° C | 98% | 1009.2 hPa | 0 mm | - | 0 W/m² | - |
| 1778055415 | 11.67° C | 99% | 1009.1 hPa | 0 mm | - | 0 W/m² | - |
| 1778055112 | 11.67° C | 99% | 1008.7 hPa | 0 mm | - | 0 W/m² | - |
* Rain latest hour (hover to see other rain measurements)
** Current wind speed in m/s (hover to see current wind gust speed)